Hourly Data Report for August 08, 2015

All times are specified in Local Standard Time (LST). Add 1 hour to adjust for Daylight Saving Time where and when it is observed.

TORONTO INTL A
ONTARIO

43°40'36.000" N
79°37'50.000" W
173.40 m
6158731
71624
YYZ

Download Data

Hourly Data (August 2015)
Hourly Data Report for August 8, 2015
Temp Definition
°C
Dew Point Temp Definition
°C
Rel Hum Definition
%
Wind Dir Definition
10's deg

Wind Spd Definition
km/h
Visibility Definition
km
Stn Press Definition
kPa
Hmdx Definition


Wind Chill Definition


Weather Definition


TIME
00:00 Legend Double Dagger 18.5 12.3 67 9 10 24.1 99.48     LegendNANA
01:00 Legend Double Dagger 17.5 12.0 70 4 8 24.1 99.50     Mainly Clear
02:00 Legend Double Dagger 17.5 12.9 74 5 8 24.1 99.51     LegendNANA
03:00 Legend Double Dagger 15.7 11.4 75 36 8 24.1 99.51     LegendNANA
04:00 Legend Double Dagger 16.1 11.9 76 2 10 24.1 99.52     Mainly Clear
05:00 Legend Double Dagger 17.4 11.5 68 7 8 24.1 99.53     LegendNANA
06:00 Legend Double Dagger 18.1 11.7 66 8 7 24.1 99.56     LegendNANA
07:00 Legend Double Dagger 18.6 12.7 68 8 9 24.1 99.64     Mostly Cloudy
08:00 Legend Double Dagger 18.9 13.6 71 9 8 24.1 99.69     LegendNANA
09:00 Legend Double Dagger 19.8 15.5 76 9 10 24.1 99.71     LegendNANA
10:00 Legend Double Dagger 19.9 16.4 80 8 13 19.3 99.75     Rain Showers
11:00 Legend Double Dagger 21.3 15.9 71 11 15 24.1 99.76 26   LegendNANA
12:00 Legend Double Dagger 21.4 14.4 64 9 18 24.1 99.75 25   LegendNANA
13:00 Legend Double Dagger 22.4 13.3 56 12 20 24.1 99.73 25   Mostly Cloudy
14:00 Legend Double Dagger 23.0 12.5 51 13 22 24.1 99.72 26   LegendNANA
15:00 Legend Double Dagger 23.0 12.5 51 13 21 24.1 99.73 26   LegendNANA
16:00 Legend Double Dagger 22.6 12.4 52 12 14 24.1 99.72 25   Mostly Cloudy
17:00 Legend Double Dagger 22.7 12.5 52 14 15 24.1 99.70 25   LegendNANA
18:00 Legend Double Dagger 21.8 11.4 51 13 13 24.1 99.73     LegendNANA
19:00 Legend Double Dagger 20.5 11.3 55 13 16 24.1 99.72     Mainly Clear
20:00 Legend Double Dagger 19.1 12.5 65 12 10 24.1 99.71     LegendNANA
21:00 Legend Double Dagger 18.9 13.2 69 12 5 24.1 99.75     LegendNANA
22:00 Legend Double Dagger 18.1 12.6 70 10 3 24.1 99.76     Mainly Clear
23:00 Legend Double Dagger 17.7 12.9 73 6 5 24.1 99.74     LegendNANA

Notes on Data Quality.

Legend

  • E = Estimated
  • M = Missing
  • NA = Not Available
  • ‡ = Partner data that is not subject to review by the National Climate Archives
Date modified: